Flagstaff, AZ

1:57 AM MST on July 23, 2017 (GMT -0700)
Flagstaff Pulliam

Weather History for KFLG - March, 2011

Change the Weather History Date:

Friday, March 4, 2011

  Actual Average Record
Temperature  
Mean Temperature 34 °F 35 °F  
Max Temperature 45 °F 48 °F 68 °F (1910)
Min Temperature 23 °F 22 °F -16 °F (1966)
Degree Days  
Heating Degree Days 31 30  
Month to date heating degree days 121 121  
Since 1 July heating degree days 4654 4960  
Cooling Degree Days 0 0  
Month to date cooling degree days 0 0  
Year to date cooling degree days 0 0  
Moisture  
Dew Point 14 °F    
Average Humidity 52    
Maximum Humidity 81    
Minimum Humidity 22    
Precipitation  
Precipitation 0.00 in 0.08 in 1.14 in (1908)
Month to date precipitation 0.00 0.31  
Year to date precipitation 3.31 4.52  
Snow  
Snow 0.00 in 0.80 in 11.00 in (1923)
Month to date snowfall 0.0 3.0  
Since 1 July snowfall 64.0 76.2  
Snow Depth 0.00 in    
Sea Level Pressure  
Sea Level Pressure 30.17 in    
Wind  
Wind Speed 10 mph (NE)    
Max Wind Speed 26 mph    
Max Gust Speed 32 mph    
Visibility 10 miles    
Events      
T = Trace of Precipitation, MM = Missing Value Source: NWS Daily Summary

Daily Weather History Graph

Daily Weather History Graph

Search for Another Location

Airport or City:

Trip Planner

Search our weather history database for the weather conditions in past years. The results will help you decide how hot, cold, wet, or windy it might be!

Date:

Astronomy

Mar. 04, 2011 Rise Set
Actual Time 6:52 AM MST 6:24 PM MST
Civil Twilight 6:27 AM MST 6:50 PM MST
Nautical Twilight 5:57 AM MST 7:19 PM MST
Astronomical Twilight 5:28 AM MST 7:48 PM MST
Moon 6:28 AM MST (3/4) 6:35 PM MST (3/4)
Length of Visible Light 12h 23m
Length of Day
11h 32m
Waning Crescent, 0% of the Moon is Illuminated
Mar 4
Waning Crescent
Mar 4
New
Mar 12
First Quarter
Mar 19
Full
Mar 26
Last Quarter

Hourly Weather History & Observations

Time (MST) Temp. Windchill Dew Point Humidity Pressure Visibility Wind Dir Wind Speed Gust Speed Precip Events Conditions
12:57 AM 27.0 °F 23.0 °F 21.0 °F 78% 30.04 in 10.0 mi SW 3.5 mph - N/A   Clear
1:57 AM 34.0 °F 29.8 °F 21.9 °F 61% 30.01 in 10.0 mi Variable 4.6 mph - N/A   Clear
2:57 AM 30.9 °F 27.5 °F 21.9 °F 69% 30.01 in 10.0 mi NNW 3.5 mph - N/A   Clear
3:57 AM 30.0 °F 26.5 °F 21.0 °F 69% 30.04 in 10.0 mi North 3.5 mph - N/A   Clear
4:57 AM 25.0 °F 20.7 °F 19.0 °F 78% 30.06 in 10.0 mi ENE 3.5 mph - N/A   Clear
5:57 AM 26.1 °F - 18.0 °F 71% 30.08 in 10.0 mi Calm Calm - N/A   Clear
6:57 AM 25.0 °F - 17.1 °F 72% 30.11 in 10.0 mi Calm Calm - N/A   Clear
7:57 AM 35.1 °F 31.0 °F 15.1 °F 44% 30.10 in 10.0 mi Variable 4.6 mph - N/A   Clear
8:57 AM 37.9 °F 33.5 °F 19.9 °F 48% 30.14 in 10.0 mi East 5.8 mph - N/A   Clear
9:57 AM 43.0 °F 36.4 °F 12.0 °F 28% 30.15 in 10.0 mi North 12.7 mph 23.0 mph N/A   Clear
10:57 AM 43.0 °F 36.8 °F 10.9 °F 27% 30.18 in 10.0 mi North 11.5 mph 19.6 mph N/A   Clear
11:57 AM 42.1 °F 36.6 °F 18.0 °F 38% 30.20 in 10.0 mi ENE 9.2 mph - N/A   Clear
12:57 PM 43.0 °F 35.1 °F 10.9 °F 27% 30.21 in 10.0 mi NE 17.3 mph 21.9 mph N/A   Clear
1:57 PM 43.0 °F 34.5 °F 7.0 °F 23% 30.16 in 10.0 mi NE 19.6 mph 28.8 mph N/A   Clear
2:57 PM 42.1 °F 32.3 °F 10.0 °F 27% 30.19 in 10.0 mi NE 24.2 mph 31.1 mph N/A   Clear
3:57 PM 44.1 °F 36.5 °F 10.0 °F 25% 30.19 in 10.0 mi NE 17.3 mph - N/A   Clear
4:57 PM 43.0 °F 35.7 °F 12.0 °F 28% 30.24 in 10.0 mi ENE 15.0 mph 20.7 mph N/A   Clear
5:57 PM 39.9 °F 31.1 °F 9.0 °F 28% 30.27 in 10.0 mi NE 17.3 mph - N/A   Clear
6:57 PM 36.0 °F 27.5 °F 10.0 °F 34% 30.30 in 10.0 mi NE 12.7 mph - N/A   Clear
7:57 PM 34.0 °F 24.6 °F 10.0 °F 37% 30.27 in 10.0 mi NE 13.8 mph - N/A   Clear
8:57 PM 34.0 °F 28.8 °F 6.1 °F 31% 30.29 in 10.0 mi East 5.8 mph - N/A   Clear
9:57 PM 33.1 °F 24.9 °F 8.1 °F 35% 30.28 in 10.0 mi ENE 10.4 mph - N/A   Clear
10:57 PM 30.9 °F 21.2 °F 10.0 °F 42% 30.28 in 10.0 mi NE 12.7 mph - N/A   Clear
11:57 PM 32.0 °F 26.4 °F 7.0 °F 35% 30.29 in 10.0 mi East 5.8 mph - N/A   Clear